Hourly Weather Ch'ŏngjin

Today, 28 September, Monday

Time Temperature Precipitation Wind Pressure Humidity
00:00 +15°C° 0 mm 1 mps 763 mmHg 82%
01:00 +15°C° 0 mm 1 mps 763 mmHg 81%
02:00 +15°C° 0 mm 1 mps 763 mmHg 80%
03:00 +15°C° 0 mm 1 mps 763 mmHg 79%
04:00 +15°C° 0 mm 1 mps 763 mmHg 78%
05:00 +15°C° 0 mm 1 mps 763 mmHg 77%
06:00 +15°C° 0 mm 1 mps 763 mmHg 76%
07:00 +18°C° 0 mm 1 mps 763 mmHg 71%
08:00 +20°C° 0 mm 1 mps 762 mmHg 65%
09:00 +20°C° 0 mm 0 mps 762 mmHg 60%
10:00 +22°C° 0 mm 1 mps 762 mmHg 59%
11:00 +23°C° 0 mm 2 mps 761 mmHg 58%
12:00 +24°C° 0 mm 2 mps 761 mmHg 57%
13:00 +24°C° 0 mm 2 mps 760 mmHg 58%
14:00 +24°C° 0 mm 2 mps 760 mmHg 60%
15:00 +23°C° 0 mm 2 mps 759 mmHg 62%
16:00 +21°C° 0 mm 2 mps 759 mmHg 70%
17:00 +20°C° 0 mm 2 mps 759 mmHg 78%
18:00 +19°C° 0 mm 1 mps 759 mmHg 86%
19:00 +19°C° 0 mm 1 mps 759 mmHg 83%
20:00 +19°C° 0 mm 1 mps 759 mmHg 80%
21:00 +18°C° 0 mm 1 mps 759 mmHg 77%
22:00 +18°C° 0 mm 1 mps 759 mmHg 76%
23:00 +18°C° 0 mm 1 mps 759 mmHg 74%

Tomorrow, 29 September, Tuesday

Time Temperature Precipitation Wind Pressure Humidity
00:00 +18°C° 0 mm 1 mps 759 mmHg 73%
01:00 +18°C° 0 mm 1 mps 759 mmHg 70%
02:00 +16°C° 0 mm 1 mps 758 mmHg 68%
03:00 +16°C° 0 mm 2 mps 758 mmHg 65%
04:00 +17°C° 0 mm 2 mps 758 mmHg 64%
05:00 +18°C° 0 mm 1 mps 758 mmHg 62%
06:00 +18°C° 0 mm 1 mps 758 mmHg 61%
07:00 +19°C° 0 mm 1 mps 758 mmHg 62%
08:00 +20°C° 0 mm 1 mps 759 mmHg 63%
09:00 +21°C° 0 mm 1 mps 759 mmHg 64%
10:00 +20°C° 0 mm 2 mps 759 mmHg 67%
11:00 +19°C° 0 mm 2 mps 758 mmHg 71%
12:00 +19°C° 0 mm 2 mps 758 mmHg 74%
13:00 +19°C° 0 mm 2 mps 758 mmHg 75%
14:00 +18°C° 0 mm 2 mps 758 mmHg 77%
15:00 +18°C° 0 mm 2 mps 758 mmHg 78%
16:00 +17°C° 0.1 mm 2 mps 758 mmHg 79%
17:00 +18°C° 0.1 mm 1 mps 758 mmHg 80%
18:00 +16°C° 0.1 mm 1 mps 759 mmHg 81%
19:00 +16°C° 0.1 mm 1 mps 759 mmHg 82%
20:00 +16°C° 0.1 mm 1 mps 760 mmHg 83%
21:00 +16°C° 0.1 mm 2 mps 760 mmHg 84%
22:00 +16°C° 0.1 mm 2 mps 760 mmHg 82%
23:00 +15°C° 0.1 mm 2 mps 760 mmHg 81%

Day after tomorrow, 30 September, Wednesday

Time Temperature Precipitation Wind Pressure Humidity
00:00 +15°C° 0.1 mm 2 mps 760 mmHg 79%
01:00 +15°C° 0.2 mm 2 mps 760 mmHg 80%
02:00 +15°C° 0.2 mm 2 mps 760 mmHg 82%
03:00 +14°C° 0.2 mm 2 mps 760 mmHg 83%
04:00 +14°C° 0.3 mm 2 mps 761 mmHg 84%
05:00 +14°C° 0.3 mm 2 mps 761 mmHg 86%
06:00 +13°C° 0.3 mm 1 mps 761 mmHg 87%
07:00 +13°C° 0.1 mm 1 mps 761 mmHg 87%
08:00 +14°C° 0.1 mm 1 mps 761 mmHg 86%
09:00 +14°C° 0.1 mm 1 mps 761 mmHg 86%
10:00 +14°C° 0.1 mm 1 mps 761 mmHg 86%
11:00 +14°C° 0.1 mm 1 mps 761 mmHg 86%
12:00 +14°C° 0.1 mm 1 mps 760 mmHg 85%
13:00 +15°C° 0.1 mm 1 mps 760 mmHg 82%
14:00 +15°C° 0.1 mm 1 mps 760 mmHg 80%
15:00 +15°C° 0.1 mm 1 mps 760 mmHg 77%
16:00 +15°C° 0 mm 1 mps 760 mmHg 79%
17:00 +14°C° 0 mm 1 mps 760 mmHg 80%
18:00 +13°C° 0 mm 0 mps 760 mmHg 82%
19:00 +12°C° 0 mm 0 mps 761 mmHg 83%
20:00 +13°C° 0 mm 1 mps 761 mmHg 84%
21:00 +12°C° 0 mm 1 mps 761 mmHg 85%
22:00 +12°C° 0 mm 1 mps 761 mmHg 84%
23:00 +12°C° 0 mm 1 mps 761 mmHg 84%

1 October, Thursday

Time Temperature Precipitation Wind Pressure Humidity
00:00 +12°C° 0 mm 1 mps 761 mmHg 83%
01:00 +12°C° 0 mm 1 mps 761 mmHg 82%
02:00 +12°C° 0 mm 1 mps 761 mmHg 81%
03:00 +12°C° 0 mm 1 mps 761 mmHg 81%
04:00 +11°C° 0 mm 1 mps 761 mmHg 81%
05:00 +11°C° 0 mm 1 mps 761 mmHg 81%
06:00 +11°C° 0 mm 1 mps 761 mmHg 82%
07:00 +13°C° 0 mm 1 mps 762 mmHg 77%
08:00 +14°C° 0 mm 1 mps 762 mmHg 73%
09:00 +15°C° 0 mm 1 mps 762 mmHg 69%
10:00 +16°C° 0 mm 1 mps 761 mmHg 70%
11:00 +16°C° 0 mm 1 mps 761 mmHg 70%
12:00 +17°C° 0 mm 2 mps 760 mmHg 71%
13:00 +16°C° 0 mm 2 mps 760 mmHg 74%
14:00 +16°C° 0 mm 2 mps 760 mmHg 77%
15:00 +16°C° 0 mm 2 mps 759 mmHg 80%
16:00 +15°C° 0 mm 2 mps 759 mmHg 82%
17:00 +15°C° 0 mm 2 mps 759 mmHg 85%
18:00 +15°C° 0 mm 2 mps 759 mmHg 87%
19:00 +15°C° 0.1 mm 2 mps 759 mmHg 88%
20:00 +15°C° 0.1 mm 2 mps 760 mmHg 89%
21:00 +14°C° 0.1 mm 3 mps 760 mmHg 90%
22:00 +14°C° 0 mm 3 mps 759 mmHg 90%
23:00 +14°C° 0 mm 3 mps 759 mmHg 91%

2 October, Friday

Time Temperature Precipitation Wind Pressure Humidity
00:00 +14°C° 0 mm 3 mps 758 mmHg 91%
01:00 +14°C° 0.1 mm 3 mps 758 mmHg 92%
02:00 +14°C° 0.1 mm 4 mps 758 mmHg 93%
03:00 +14°C° 0.1 mm 4 mps 757 mmHg 94%
04:00 +15°C° 0.3 mm 4 mps 757 mmHg 94%
05:00 +15°C° 0.3 mm 4 mps 757 mmHg 94%
06:00 +15°C° 0.3 mm 5 mps 757 mmHg 95%
07:00 +17°C° 0.6 mm 4 mps 757 mmHg 94%
08:00 +17°C° 0.6 mm 4 mps 756 mmHg 93%
09:00 +17°C° 0.6 mm 3 mps 756 mmHg 93%
10:00 +18°C° 0.6 mm 3 mps 756 mmHg 88%
11:00 +19°C° 0.6 mm 3 mps 755 mmHg 84%
12:00 +20°C° 0.6 mm 3 mps 754 mmHg 80%
13:00 +20°C° 0.2 mm 3 mps 754 mmHg 79%
14:00 +20°C° 0.2 mm 3 mps 754 mmHg 78%
15:00 +20°C° 0.2 mm 3 mps 753 mmHg 77%
16:00 +19°C° 0.2 mm 3 mps 753 mmHg 81%
17:00 +18°C° 0.2 mm 2 mps 753 mmHg 85%
18:00 +18°C° 0.2 mm 1 mps 753 mmHg 89%
19:00 +17°C° 0.2 mm 2 mps 754 mmHg 85%
20:00 +16°C° 0.2 mm 3 mps 755 mmHg 81%
21:00 +16°C° 0.2 mm 3 mps 755 mmHg 77%
22:00 +14°C° 0 mm 4 mps 755 mmHg 76%
23:00 +13°C° 0 mm 4 mps 756 mmHg 76%

3 October, Saturday

Time Temperature Precipitation Wind Pressure Humidity
00:00 +13°C° 0 mm 4 mps 756 mmHg 75%
01:00 +12°C° 0 mm 4 mps 756 mmHg 75%
02:00 +12°C° 0 mm 4 mps 757 mmHg 74%
03:00 +11°C° 0 mm 4 mps 757 mmHg 74%
04:00 +11°C° 0 mm 3 mps 757 mmHg 74%
05:00 +11°C° 0 mm 3 mps 758 mmHg 73%
06:00 +11°C° 0 mm 3 mps 758 mmHg 73%
07:00 +14°C° 0 mm 2 mps 759 mmHg 67%
08:00 +15°C° 0 mm 2 mps 759 mmHg 62%
09:00 +18°C° 0 mm 1 mps 759 mmHg 56%
10:00 +19°C° 0 mm 1 mps 758 mmHg 53%
11:00 +19°C° 0 mm 2 mps 758 mmHg 49%
12:00 +20°C° 0 mm 2 mps 757 mmHg 46%
13:00 +20°C° 0 mm 2 mps 757 mmHg 48%
14:00 +19°C° 0 mm 3 mps 757 mmHg 50%
15:00 +19°C° 0 mm 3 mps 757 mmHg 53%
16:00 +18°C° 0 mm 3 mps 757 mmHg 62%
17:00 +16°C° 0 mm 3 mps 757 mmHg 71%
18:00 +14°C° 0 mm 3 mps 757 mmHg 81%
19:00 +13°C° 0 mm 3 mps 757 mmHg 79%
20:00 +13°C° 0 mm 3 mps 757 mmHg 76%
21:00 +12°C° 0 mm 3 mps 757 mmHg 74%
22:00 +12°C° 0 mm 3 mps 756 mmHg 73%
23:00 +13°C° 0 mm 2 mps 756 mmHg 71%
Show more